GLO1777 SBFN-SBRF

Flight info

Callsign GLO1777
Flight time 0h 50m
Altitude 36000
Route FNR UB623 UBRUT
Aircraft B737/M-SDFGIKRWY/LB1

Departure

Time 2026-05-06 00:30
Airport Fernando de Noronha Airport (SBFN)

Arrival

Time 2026-05-06 01:20
Airport Recife/Guararapes - Gilberto Freyre International Airport (SBRF)
Time Latitude Longitude Altitude Speed Heading
2026-05-06 00:08 -3.85592 -32.42865 169 ft 0 kts 183°
2026-05-06 00:24 -3.85590 -32.42865 169 ft 3 kts 184°
2026-05-06 00:24 -3.85567 -32.42858 169 ft 4 kts 232°
2026-05-06 00:24 -3.85560 -32.42839 169 ft 1 kts 275°
2026-05-06 00:27 -3.85559 -32.42848 169 ft 3 kts 278°
2026-05-06 00:27 -3.85554 -32.42883 169 ft 7 kts 278°
2026-05-06 00:27 -3.85528 -32.42930 169 ft 8 kts 325°
2026-05-06 00:27 -3.85469 -32.42968 169 ft 11 kts 325°
2026-05-06 00:28 -3.85404 -32.43015 171 ft 11 kts 318°
2026-05-06 00:28 -3.85393 -32.43074 172 ft 9 kts 244°
2026-05-06 00:28 -3.85416 -32.43105 172 ft 2 kts 259°
2026-05-06 00:28 -3.85405 -32.43115 172 ft 4 kts 335°
2026-05-06 00:29 -3.85386 -32.43109 172 ft 3 kts 44°
2026-05-06 00:29 -3.85387 -32.43032 171 ft 34 kts 96°
2026-05-06 00:29 -3.85433 -32.42465 168 ft 125 kts 95°
2026-05-06 00:29 -3.85546 -32.41481 710 ft 151 kts 99°
2026-05-06 00:30 -3.85641 -32.40417 1784 ft 150 kts 99°
2026-05-06 00:30 -3.85745 -32.39445 2973 ft 139 kts 117°
2026-05-06 00:30 -3.86532 -32.38788 3378 ft 173 kts 167°
2026-05-06 00:30 -3.87860 -32.38873 3716 ft 211 kts 189°
2026-05-06 00:31 -3.89315 -32.39490 4087 ft 240 kts 206°
2026-05-06 00:31 -3.90764 -32.40368 4827 ft 251 kts 208°
2026-05-06 00:31 -3.92307 -32.41346 5375 ft 269 kts 209°
2026-05-06 00:31 -3.93883 -32.42351 6392 ft 274 kts 209°
2026-05-06 00:32 -3.95517 -32.43385 7365 ft 279 kts 209°
2026-05-06 00:32 -3.97181 -32.44430 8306 ft 286 kts 209°
2026-05-06 00:32 -3.98887 -32.45494 9244 ft 292 kts 208°
2026-05-06 00:32 -4.00639 -32.46579 10176 ft 298 kts 208°
2026-05-06 00:33 -4.02454 -32.47697 10662 ft 320 kts 208°
2026-05-06 00:33 -4.04441 -32.48914 10948 ft 345 kts 208°
2026-05-06 00:33 -4.06516 -32.50187 11695 ft 352 kts 208°
2026-05-06 00:33 -4.08594 -32.51462 12530 ft 355 kts 208°
2026-05-06 00:34 -4.10712 -32.52761 13380 ft 359 kts 208°
2026-05-06 00:34 -4.12852 -32.54073 14145 ft 363 kts 208°
2026-05-06 00:34 -4.15031 -32.55406 14814 ft 369 kts 209°
2026-05-06 00:34 -4.17237 -32.56755 15495 ft 374 kts 209°
2026-05-06 00:35 -4.19477 -32.58126 16186 ft 378 kts 209°
2026-05-06 00:35 -4.21739 -32.59509 16859 ft 383 kts 209°
2026-05-06 00:35 -4.24028 -32.60909 17529 ft 388 kts 209°
2026-05-06 00:35 -4.26346 -32.62326 18175 ft 393 kts 210°
2026-05-06 00:36 -4.28703 -32.63767 18751 ft 398 kts 209°
2026-05-06 00:36 -4.31044 -32.65199 19301 ft 401 kts 210°
2026-05-06 00:36 -4.33442 -32.66666 19885 ft 405 kts 210°
2026-05-06 00:36 -4.35858 -32.68144 20454 ft 408 kts 210°
2026-05-06 00:37 -4.38294 -32.69634 20986 ft 412 kts 210°
2026-05-06 00:37 -4.40754 -32.71139 21516 ft 416 kts 210°
2026-05-06 00:37 -4.43230 -32.72654 22049 ft 419 kts 210°
2026-05-06 00:37 -4.45733 -32.74186 22548 ft 424 kts 210°
2026-05-06 00:38 -4.48263 -32.75734 23072 ft 426 kts 210°
2026-05-06 00:38 -4.50804 -32.77289 23597 ft 429 kts 210°
2026-05-06 00:38 -4.53367 -32.78857 23967 ft 433 kts 210°
2026-05-06 00:38 -4.55945 -32.80435 24391 ft 436 kts 211°
2026-05-06 00:39 -4.58538 -32.82023 24825 ft 438 kts 211°
2026-05-06 00:39 -4.61123 -32.83606 25188 ft 441 kts 211°
2026-05-06 00:39 -4.63747 -32.85212 25619 ft 443 kts 211°
2026-05-06 00:39 -4.66392 -32.86832 26006 ft 446 kts 211°
2026-05-06 00:40 -4.69049 -32.88459 26354 ft 449 kts 211°
2026-05-06 00:40 -4.71722 -32.90096 26765 ft 450 kts 212°
2026-05-06 00:40 -4.74402 -32.91737 27130 ft 453 kts 212°
2026-05-06 00:40 -4.77104 -32.93392 27464 ft 456 kts 212°
2026-05-06 00:41 -4.79814 -32.95052 27839 ft 458 kts 212°
2026-05-06 00:41 -4.82536 -32.96719 28239 ft 459 kts 212°
2026-05-06 00:41 -4.85272 -32.98395 28542 ft 463 kts 212°
2026-05-06 00:41 -4.88025 -33.00082 28878 ft 464 kts 213°
2026-05-06 00:42 -4.90787 -33.01773 29228 ft 466 kts 213°
2026-05-06 00:42 -4.93526 -33.03451 29508 ft 469 kts 213°
2026-05-06 00:42 -4.96320 -33.05163 29846 ft 470 kts 213°
2026-05-06 00:42 -4.99110 -33.06876 30150 ft 472 kts 213°
2026-05-06 00:43 -5.01911 -33.08593 30386 ft 473 kts 214°
2026-05-06 00:43 -5.04723 -33.10314 30769 ft 471 kts 213°
2026-05-06 00:43 -5.07505 -33.12021 31297 ft 466 kts 214°
2026-05-06 00:43 -5.10261 -33.13709 31825 ft 461 kts 214°
2026-05-06 00:44 -5.12992 -33.15382 32306 ft 458 kts 214°
2026-05-06 00:44 -5.15708 -33.17048 32760 ft 456 kts 214°
2026-05-06 00:44 -5.18413 -33.18708 33221 ft 454 kts 214°
2026-05-06 00:44 -5.21104 -33.20360 33708 ft 451 kts 214°
2026-05-06 00:45 -5.23775 -33.21999 34176 ft 449 kts 214°
2026-05-06 00:45 -5.26398 -33.23609 34546 ft 447 kts 214°
2026-05-06 00:45 -5.29055 -33.25240 34845 ft 448 kts 214°
2026-05-06 00:45 -5.31709 -33.26870 35135 ft 448 kts 214°
2026-05-06 00:46 -5.34375 -33.28507 35467 ft 448 kts 214°
2026-05-06 00:46 -5.37027 -33.30134 35830 ft 446 kts 214°
2026-05-06 00:46 -5.39680 -33.31764 36012 ft 448 kts 215°
2026-05-06 00:47 -5.44786 -33.35386 36014 ft 449 kts 220°
2026-05-06 00:47 -5.49679 -33.39228 36006 ft 442 kts 221°
2026-05-06 00:48 -5.54518 -33.43016 36021 ft 441 kts 220°
2026-05-06 00:48 -5.59371 -33.46756 36020 ft 442 kts 220°
2026-05-06 00:49 -5.64266 -33.50499 36023 ft 442 kts 220°
2026-05-06 00:49 -5.69171 -33.54244 36018 ft 443 kts 220°
2026-05-06 00:50 -5.74083 -33.57994 36020 ft 443 kts 220°
2026-05-06 00:50 -5.78993 -33.61746 36021 ft 443 kts 220°
2026-05-06 00:51 -5.83904 -33.65500 36023 ft 443 kts 220°
2026-05-06 00:51 -5.88785 -33.69232 36022 ft 444 kts 220°
2026-05-06 00:52 -5.93699 -33.72990 36023 ft 444 kts 220°
2026-05-06 00:52 -5.98611 -33.76747 36022 ft 444 kts 220°
2026-05-06 00:53 -6.03530 -33.80511 36024 ft 444 kts 220°
2026-05-06 00:53 -6.08442 -33.84270 36023 ft 444 kts 220°
2026-05-06 00:54 -6.13360 -33.88034 36022 ft 444 kts 220°
2026-05-06 00:54 -6.18239 -33.91770 36020 ft 444 kts 220°
2026-05-06 00:55 -6.23155 -33.95535 36021 ft 444 kts 220°
2026-05-06 00:55 -6.28074 -33.99302 36022 ft 444 kts 220°
2026-05-06 00:56 -6.32957 -34.03044 36022 ft 444 kts 220°
2026-05-06 00:56 -6.37868 -34.06807 36021 ft 444 kts 220°
2026-05-06 00:57 -6.42783 -34.10575 36024 ft 443 kts 220°
2026-05-06 00:57 -6.47689 -34.14337 36021 ft 443 kts 220°
2026-05-06 00:57 -6.50158 -34.16231 35637 ft 449 kts 220°
2026-05-06 00:58 -6.52657 -34.18149 35007 ft 450 kts 220°
2026-05-06 00:58 -6.55148 -34.20060 34286 ft 451 kts 219°
2026-05-06 00:58 -6.57640 -34.21971 33634 ft 449 kts 219°
2026-05-06 00:58 -6.60123 -34.23875 33009 ft 446 kts 219°
2026-05-06 00:59 -6.62551 -34.25737 32463 ft 442 kts 219°
2026-05-06 00:59 -6.64991 -34.27608 31902 ft 439 kts 219°
2026-05-06 00:59 -6.67414 -34.29467 31352 ft 436 kts 219°
2026-05-06 00:59 -6.69813 -34.31310 30810 ft 433 kts 220°
2026-05-06 01:00 -6.72208 -34.33149 30267 ft 431 kts 219°
2026-05-06 01:00 -6.74585 -34.34976 29648 ft 428 kts 219°
2026-05-06 01:00 -6.76946 -34.36789 29084 ft 424 kts 219°
2026-05-06 01:00 -6.79273 -34.38577 28519 ft 420 kts 219°
2026-05-06 01:01 -6.81595 -34.40361 27970 ft 417 kts 218°
2026-05-06 01:01 -6.83894 -34.42127 27438 ft 413 kts 219°
2026-05-06 01:01 -6.86141 -34.43854 26902 ft 410 kts 218°
2026-05-06 01:01 -6.88399 -34.45590 26377 ft 407 kts 218°
2026-05-06 01:02 -6.90644 -34.47315 25833 ft 405 kts 218°
2026-05-06 01:02 -6.92888 -34.49039 25294 ft 404 kts 218°
2026-05-06 01:02 -6.95116 -34.50753 24761 ft 402 kts 218°
2026-05-06 01:02 -6.97338 -34.52460 24226 ft 401 kts 218°
2026-05-06 01:03 -6.99553 -34.54164 23694 ft 400 kts 218°
2026-05-06 01:03 -7.01763 -34.55864 23083 ft 399 kts 217°
2026-05-06 01:03 -7.03936 -34.57535 22533 ft 396 kts 217°
2026-05-06 01:03 -7.06120 -34.59215 21995 ft 393 kts 217°
2026-05-06 01:04 -7.08283 -34.60880 21472 ft 389 kts 217°
2026-05-06 01:04 -7.10431 -34.62533 20949 ft 388 kts 217°
2026-05-06 01:04 -7.12656 -34.64093 20232 ft 395 kts 208°
2026-05-06 01:04 -7.15119 -34.65387 19300 ft 403 kts 205°
2026-05-06 01:05 -7.16785 -34.66213 18986 ft 402 kts 204°
2026-05-06 01:05 -7.20159 -34.67864 18191 ft 404 kts 204°
2026-05-06 01:05 -7.21834 -34.68686 17767 ft 404 kts 204°
2026-05-06 01:05 -7.24359 -34.69936 17188 ft 403 kts 204°
2026-05-06 01:06 -7.26860 -34.71185 16612 ft 400 kts 204°
2026-05-06 01:06 -7.29347 -34.72436 16058 ft 398 kts 205°
2026-05-06 01:06 -7.31814 -34.73682 15510 ft 396 kts 205°
2026-05-06 01:06 -7.34276 -34.74928 14944 ft 394 kts 204°
2026-05-06 01:07 -7.37507 -34.76565 14195 ft 389 kts 204°
2026-05-06 01:07 -7.39130 -34.77388 13817 ft 385 kts 204°
2026-05-06 01:07 -7.41512 -34.78596 13216 ft 379 kts 204°
2026-05-06 01:07 -7.43822 -34.79768 12665 ft 374 kts 204°
2026-05-06 01:08 -7.45838 -34.80790 12193 ft 369 kts 204°
2026-05-06 01:09 -7.46900 -34.81328 11945 ft 367 kts 204°
2026-05-06 01:10 -7.49143 -34.82465 11427 ft 364 kts 203°
2026-05-06 01:10 -7.51394 -34.83606 10881 ft 361 kts 203°
2026-05-06 01:10 -7.53630 -34.84740 10422 ft 356 kts 203°
2026-05-06 01:10 -7.55816 -34.85849 10238 ft 349 kts 203°
2026-05-06 01:11 -7.57996 -34.86954 10096 ft 355 kts 203°
2026-05-06 01:11 -7.60232 -34.88084 9617 ft 362 kts 203°
2026-05-06 01:11 -7.62477 -34.89222 9134 ft 359 kts 203°
2026-05-06 01:11 -7.64678 -34.90341 8670 ft 349 kts 203°
2026-05-06 01:12 -7.66822 -34.91431 8217 ft 340 kts 203°
2026-05-06 01:12 -7.68881 -34.92477 7791 ft 332 kts 203°
2026-05-06 01:12 -7.70919 -34.93511 7354 ft 324 kts 203°
2026-05-06 01:12 -7.72909 -34.94522 6941 ft 316 kts 203°
2026-05-06 01:13 -7.74853 -34.95509 6536 ft 309 kts 203°
2026-05-06 01:13 -7.76751 -34.96472 6119 ft 302 kts 203°
2026-05-06 01:13 -7.78610 -34.97416 5722 ft 296 kts 203°
2026-05-06 01:13 -7.80432 -34.98341 5335 ft 290 kts 203°
2026-05-06 01:14 -7.83954 -35.00128 4608 ft 277 kts 203°
2026-05-06 01:14 -7.85751 -35.00640 4237 ft 265 kts 176°
2026-05-06 01:14 -7.87537 -35.00400 4055 ft 252 kts 168°
2026-05-06 01:15 -7.89214 -35.00033 3901 ft 240 kts 163°
2026-05-06 01:15 -7.90777 -34.99551 3787 ft 229 kts 160°
2026-05-06 01:15 -7.92256 -34.99054 3694 ft 219 kts 160°
2026-05-06 01:15 -7.93657 -34.98586 3595 ft 210 kts 160°
2026-05-06 01:16 -7.95037 -34.98130 3411 ft 205 kts 160°
2026-05-06 01:16 -7.96383 -34.97686 3173 ft 203 kts 161°
2026-05-06 01:16 -7.97703 -34.97248 2950 ft 197 kts 161°
2026-05-06 01:16 -7.98996 -34.96822 2671 ft 193 kts 160°
2026-05-06 01:17 -8.00254 -34.96406 2411 ft 188 kts 161°
2026-05-06 01:17 -8.01475 -34.96004 2160 ft 181 kts 162°
2026-05-06 01:17 -8.02652 -34.95614 1927 ft 173 kts 162°
2026-05-06 01:17 -8.03750 -34.95251 1705 ft 159 kts 161°
2026-05-06 01:18 -8.04763 -34.94917 1481 ft 147 kts 162°
2026-05-06 01:18 -8.05687 -34.94612 1309 ft 138 kts 162°
2026-05-06 01:18 -8.06583 -34.94316 1173 ft 130 kts 162°
2026-05-06 01:18 -8.07428 -34.94038 982 ft 124 kts 161°
2026-05-06 01:19 -8.08266 -34.93760 823 ft 130 kts 161°
2026-05-06 01:19 -8.09149 -34.93468 573 ft 136 kts 160°
2026-05-06 01:19 -8.10030 -34.93176 344 ft 130 kts 158°
2026-05-06 01:19 -8.10880 -34.92896 167 ft 130 kts 160°
2026-05-06 01:20 -8.11751 -34.92606 38 ft 127 kts 160°
2026-05-06 01:20 -8.12494 -34.92361 36 ft 92 kts 162°
2026-05-06 01:20 -8.12959 -34.92209 38 ft 49 kts 162°
2026-05-06 01:20 -8.13163 -34.92136 35 ft 24 kts 154°
2026-05-06 01:21 -8.13271 -34.92036 37 ft 8 kts 130°
2026-05-06 01:21 -8.13297 -34.91992 37 ft 7 kts 97°
2026-05-06 01:21 -8.13296 -34.91935 38 ft 9 kts 84°
2026-05-06 01:21 -8.13278 -34.91876 38 ft 7 kts 72°
2026-05-06 01:22 -8.13277 -34.91874 37 ft 0 kts 72°